Location: Bothwell
(42.3833°S, 147.0000°E)
Time: 09:01:14
(UTC+11:00)

POLYITAN 1 - Visible Passes

Search period start: 21 February 2024 00:00
Search period end: 02 March 2024 00:00
Orbit: 560 x 578 km, 98.0° (Epoch: 20 February)

Date Brightness Start Highest point End Pass type
(mag) Time Alt. Az. Time Alt. Az. Time Alt. Az.
21 Feb ? 02:50:48 22° SSE 02:50:48 22° SSE 02:52:38 10° S visible
21 Feb ? 04:26:55 11° SW 04:26:55 11° SW 04:27:13 10° SW visible
22 Feb ? 02:52:26 21° SSE 02:52:26 21° SSE 02:54:10 10° S visible
22 Feb ? 04:28:33 11° SW 04:28:33 11° SW 04:28:41 10° SW visible
23 Feb ? 02:54:03 21° SSE 02:54:03 21° SSE 02:55:41 10° S visible
24 Feb ? 02:55:39 20° SSE 02:55:39 20° SSE 02:57:10 10° S visible
25 Feb ? 02:57:14 19° SSE 02:57:14 19° SSE 02:58:39 10° S visible
26 Feb ? 02:58:48 18° SSE 02:58:48 18° SSE 03:00:06 10° S visible
27 Feb ? 03:00:21 18° S 03:00:21 18° S 03:01:32 10° S visible
28 Feb ? 03:01:53 17° S 03:01:53 17° S 03:02:57 10° S visible
29 Feb ? 03:03:24 16° S 03:03:24 16° S 03:04:21 10° S visible
01 Mar ? 03:04:53 15° S 03:04:53 15° S 03:05:44 10° S visible
